Moose Lake, MN

10:38 AM CST on November 20, 2017 (GMT -0600)
Moose Lake-Carlton County

Weather History for KMZH - October, 2013

Change the Weather History Date:

Saturday, October 26, 2013

  Actual Average Record
Temperature  
Mean Temperature 39 °F -  
Max Temperature 46 °F 53 °F 79 °F (1989)
Min Temperature 32 °F 32 °F 11 °F (1962)
Degree Days  
Heating Degree Days 26    
Moisture  
Dew Point 30 °F    
Average Humidity 70    
Maximum Humidity 87    
Minimum Humidity 53    
Precipitation  
Precipitation 0.02 in - - ()
Sea Level Pressure  
Sea Level Pressure 29.93 in    
Wind  
Wind Speed 10 mph (NW)    
Max Wind Speed 18 mph    
Max Gust Speed 29 mph    
Visibility 10 miles    
Events Rain    
Averages and records for this station are not official NWS values.
T = Trace of Precipitation, MM = Missing Value Source: NWS Daily Summary

Daily Weather History Graph

Daily Weather History Graph

Search for Another Location

Airport or City:

Trip Planner

Search our weather history database for the weather conditions in past years. The results will help you decide how hot, cold, wet, or windy it might be!

Date:

Astronomy

Oct. 26, 2013 Rise Set
Actual Time 7:44 AM CDT 6:05 PM CDT
Civil Twilight 7:13 AM CDT 6:36 PM CDT
Nautical Twilight 6:38 AM CDT 7:11 PM CDT
Astronomical Twilight 6:03 AM CDT 7:46 PM CDT
Moon No Moon Rise 2:03 PM CDT (10/26)
Length of Visible Light 11h 22m
Length of Day
10h 20m
Waning Gibbous, 53% of the Moon is Illuminated
Oct 26
Waning Gibbous
Oct 26
Last Quarter
Nov 3
New
Nov 9
First Quarter
Nov 17
Full

Hourly Weather History & Observations

Time (CDT) Temp. Windchill Dew Point Humidity Pressure Visibility Wind Dir Wind Speed Gust Speed Precip Events Conditions
12:07 AM 46.4 °F 39.2 °F 30.2 °F 53% 29.72 in 10.0 mi NW 18.4 mph 27.6 mph N/A   Overcast
12:26 AM 46.4 °F 40.4 °F 30.2 °F 53% 29.72 in 10.0 mi NW 13.8 mph 28.8 mph N/A   Overcast
12:46 AM 46.4 °F 41.5 °F 30.2 °F 53% 29.73 in 10.0 mi NW 10.4 mph 16.1 mph N/A   Overcast
1:07 AM 44.6 °F 40.2 °F 30.2 °F 57% 29.73 in 10.0 mi NW 8.1 mph 18.4 mph N/A   Overcast
1:26 AM 44.6 °F 39.7 °F 32.0 °F 61% 29.74 in 10.0 mi NNW 9.2 mph 18.4 mph N/A   Overcast
1:46 AM 44.6 °F 40.2 °F 32.0 °F 61% 29.75 in 10.0 mi NNW 8.1 mph 18.4 mph N/A   Mostly Cloudy
2:06 AM 41.0 °F 34.3 °F 33.8 °F 76% 29.76 in 10.0 mi North 11.5 mph 23.0 mph N/A   Drizzle
2:26 AM 39.2 °F 32.5 °F 33.8 °F 81% 29.77 in 7.0 mi NNW 10.4 mph 16.1 mph N/A Rain Light Rain
2:46 AM 39.2 °F 33.6 °F 35.6 °F 87% 29.77 in 10.0 mi NNW 8.1 mph - N/A Rain Rain
3:06 AM 37.4 °F 30.8 °F 33.8 °F 87% 29.78 in 10.0 mi NW 9.2 mph - N/A   Overcast
3:26 AM 37.4 °F 30.8 °F 33.8 °F 87% 29.79 in 10.0 mi NW 9.2 mph - N/A   Overcast
3:46 AM 39.2 °F 33.6 °F 33.8 °F 81% 29.79 in 10.0 mi NNW 8.1 mph - N/A   Overcast
4:06 AM 37.4 °F 30.8 °F 33.8 °F 87% 29.81 in 7.0 mi NW 9.2 mph 16.1 mph 0.01 in Rain Light Rain
4:26 AM 37.4 °F 30.3 °F 33.8 °F 87% 29.82 in 10.0 mi NW 10.4 mph 16.1 mph 0.01 in   Overcast
4:46 AM 37.4 °F 29.8 °F 32.0 °F 81% 29.83 in 10.0 mi NW 11.5 mph 20.7 mph 0.01 in   Overcast
5:06 AM 37.4 °F 29.8 °F 32.0 °F 81% 29.84 in 10.0 mi NNW 11.5 mph 20.7 mph N/A   Overcast
5:27 AM 37.4 °F 29.8 °F 32.0 °F 81% 29.85 in 10.0 mi NNW 11.5 mph 16.1 mph N/A   Overcast
5:46 AM 37.4 °F 29.3 °F 32.0 °F 81% 29.86 in 10.0 mi NNW 12.7 mph 18.4 mph N/A   Overcast
6:06 AM 37.4 °F 30.8 °F 32.0 °F 81% 29.87 in 10.0 mi NNW 9.2 mph 19.6 mph 0.01 in   Overcast
6:26 AM 37.4 °F 29.8 °F 30.2 °F 75% 29.88 in 10.0 mi NNW 11.5 mph - 0.01 in   Overcast
6:47 AM 37.4 °F 30.8 °F 30.2 °F 75% 29.89 in 10.0 mi NNW 9.2 mph - 0.01 in   Overcast
7:06 AM 37.4 °F 30.8 °F 32.0 °F 81% 29.89 in 10.0 mi NW 9.2 mph - N/A   Overcast
7:26 AM 37.4 °F 30.3 °F 30.2 °F 75% 29.90 in 10.0 mi NNW 10.4 mph 16.1 mph N/A   Overcast
7:46 AM 37.4 °F 29.8 °F 30.2 °F 75% 29.91 in 10.0 mi NNW 11.5 mph 17.3 mph N/A   Overcast
8:06 AM 37.4 °F 30.8 °F 30.2 °F 75% 29.91 in 10.0 mi NW 9.2 mph 21.9 mph N/A   Overcast
8:26 AM 37.4 °F 30.8 °F 30.2 °F 75% 29.92 in 10.0 mi NNW 9.2 mph 20.7 mph N/A   Overcast
8:47 AM 37.4 °F 30.8 °F 30.2 °F 75% 29.93 in 10.0 mi NW 9.2 mph - N/A   Overcast
9:06 AM 37.4 °F 29.3 °F 30.2 °F 75% 29.93 in 10.0 mi NW 12.7 mph 16.1 mph N/A   Overcast
9:26 AM 37.4 °F 31.4 °F 30.2 °F 75% 29.95 in 10.0 mi NW 8.1 mph 18.4 mph N/A   Overcast
9:47 AM 39.2 °F 30.8 °F 30.2 °F 70% 29.96 in 10.0 mi NNW 15.0 mph 20.7 mph N/A   Overcast
10:06 AM 41.0 °F 34.3 °F 30.2 °F 65% 29.96 in 10.0 mi NW 11.5 mph 19.6 mph N/A   Mostly Cloudy
10:26 AM 41.0 °F 33.9 °F 30.2 °F 65% 29.97 in 10.0 mi NW 12.7 mph 21.9 mph N/A   Mostly Cloudy
10:46 AM 41.0 °F 33.9 °F 30.2 °F 65% 29.98 in 10.0 mi NW 12.7 mph 20.7 mph N/A   Overcast
11:06 AM 41.0 °F 35.2 °F 30.2 °F 65% 29.99 in 10.0 mi NNW 9.2 mph 18.4 mph N/A   Overcast
11:26 AM 41.0 °F 33.9 °F 30.2 °F 65% 30.00 in 10.0 mi NNW 12.7 mph 21.9 mph N/A   Overcast
11:46 AM 41.0 °F 33.9 °F 30.2 °F 65% 30.01 in 10.0 mi NNW 12.7 mph 18.4 mph N/A   Overcast
12:06 PM 41.0 °F 34.7 °F 30.2 °F 65% 30.01 in 10.0 mi NNW 10.4 mph - N/A   Mostly Cloudy
12:26 PM 42.8 °F 37.5 °F 32.0 °F 66% 30.01 in 10.0 mi NW 9.2 mph - N/A   Mostly Cloudy
12:46 PM 41.0 °F 35.2 °F 32.0 °F 70% 30.01 in 10.0 mi North 9.2 mph 21.9 mph N/A   Overcast
1:06 PM 42.8 °F 37.0 °F 30.2 °F 61% 30.01 in 10.0 mi NW 10.4 mph 17.3 mph N/A   Overcast
1:27 PM 42.8 °F 35.1 °F 28.4 °F 57% 30.01 in 10.0 mi NW 16.1 mph 20.7 mph N/A   Mostly Cloudy
1:47 PM 42.8 °F 38.0 °F 28.4 °F 57% 30.01 in 10.0 mi WNW 8.1 mph 17.3 mph N/A   Mostly Cloudy
2:06 PM 44.6 °F 40.2 °F 30.2 °F 57% 30.01 in 10.0 mi NW 8.1 mph 20.7 mph N/A   Mostly Cloudy
2:26 PM 42.8 °F 36.2 °F 28.4 °F 57% 30.01 in 10.0 mi NNW 12.7 mph 16.1 mph N/A   Overcast
2:46 PM 42.8 °F 37.0 °F 32.0 °F 66% 30.01 in 10.0 mi NNE 10.4 mph - N/A   Overcast
3:06 PM 41.0 °F 35.8 °F 32.0 °F 70% 30.02 in 10.0 mi North 8.1 mph - N/A   Overcast
3:27 PM 41.0 °F 36.4 °F 32.0 °F 70% 30.02 in 10.0 mi North 6.9 mph - N/A   Overcast
3:47 PM 41.0 °F 35.8 °F 32.0 °F 70% 30.02 in 10.0 mi NW 8.1 mph - N/A   Overcast
4:06 PM 41.0 °F 37.1 °F 28.4 °F 61% 30.02 in 10.0 mi NW 5.8 mph 17.3 mph N/A   Overcast
4:26 PM 42.8 °F 38.6 °F 30.2 °F 61% 30.02 in 10.0 mi NW 6.9 mph - N/A   Overcast
4:46 PM 42.8 °F 37.5 °F 28.4 °F 57% 30.02 in 10.0 mi NW 9.2 mph - N/A   Overcast
5:06 PM 41.0 °F 35.8 °F 30.2 °F 65% 30.02 in 10.0 mi NW 8.1 mph - N/A   Overcast
5:27 PM 41.0 °F 38.0 °F 28.4 °F 61% 30.02 in 10.0 mi NW 4.6 mph - N/A   Overcast
5:47 PM 41.0 °F 37.1 °F 28.4 °F 61% 30.02 in 10.0 mi NW 5.8 mph - N/A   Overcast
6:06 PM 41.0 °F - 30.2 °F 65% 30.02 in 10.0 mi Calm Calm - N/A   Overcast
6:26 PM 41.0 °F 38.0 °F 28.4 °F 61% 30.02 in 10.0 mi NW 4.6 mph - N/A   Overcast
6:47 PM 41.0 °F 35.8 °F 28.4 °F 61% 30.02 in 10.0 mi WNW 8.1 mph - N/A   Overcast
7:06 PM 39.2 °F 34.2 °F 28.4 °F 65% 30.02 in 10.0 mi West 6.9 mph - N/A   Overcast
7:27 PM 39.2 °F 35.9 °F 28.4 °F 65% 30.03 in 10.0 mi WNW 4.6 mph - N/A   Overcast
7:46 PM 39.2 °F 34.2 °F 28.4 °F 65% 30.02 in 10.0 mi West 6.9 mph - N/A   Overcast
8:06 PM 37.4 °F 33.8 °F 28.4 °F 70% 30.01 in 10.0 mi West 4.6 mph - N/A   Mostly Cloudy
8:27 PM 37.4 °F 33.8 °F 28.4 °F 70% 30.01 in 10.0 mi West 4.6 mph - N/A   Overcast
8:46 PM 37.4 °F 33.8 °F 28.4 °F 70% 30.01 in 10.0 mi West 4.6 mph - N/A   Overcast
9:06 PM 37.4 °F 32.8 °F 28.4 °F 70% 30.01 in 10.0 mi West 5.8 mph - N/A   Overcast
9:26 PM 37.4 °F 32.1 °F 28.4 °F 70% 30.00 in 10.0 mi West 6.9 mph - N/A   Overcast
9:46 PM 35.6 °F 30.7 °F 28.4 °F 75% 30.01 in 10.0 mi West 5.8 mph - N/A   Overcast
10:06 PM 35.6 °F 31.7 °F 28.4 °F 75% 30.00 in 10.0 mi West 4.6 mph - N/A   Overcast
10:26 PM 35.6 °F 32.8 °F 28.4 °F 75% 29.99 in 10.0 mi WSW 3.5 mph - N/A   Mostly Cloudy
10:47 PM 33.8 °F 29.6 °F 28.4 °F 81% 29.97 in 10.0 mi SSW 4.6 mph - N/A   Clear
11:06 PM 32.0 °F - 28.4 °F 87% 29.98 in 10.0 mi Calm Calm - N/A   Clear
11:27 PM 32.0 °F - 26.6 °F 80% 29.97 in 10.0 mi Calm Calm - N/A   Clear
11:46 PM 32.0 °F 27.5 °F 26.6 °F 80% 29.96 in 10.0 mi SSW 4.6 mph - N/A   Clear